Dades meteomassalio
Diari Summary for Marc 28, 2017 Units:  Metric    English   Both
« Previous Day
Next Day »
Diari Semanal Mensual Anual Personalitzat
  Maxima: Minima: Mijana:
Temperatura: -17.8 °C -15.8 °C -11.4 °C
Rosada: -17.8 °C -16.3 °C -14.3 °C
Humitat: Humidity % 43 % 74 %
Velocitat del vent: 0 km/h 0 km/h 6.9 km/h
Racha vent: 0 km/h - -
Vent:- - WSW
Pressio: 0 hPa 34682.8 hPa -
Pluja: 7.62 mm    
Historical Graphs
 
 
Tabular Data for Marc 28, 2017
Time Temperature Dew Point Pressure Wind Wind Speed Wind Gust Humidity Rainfall Rate (Hourly) solar Conditions
-17.8 °C -17.8 °C 0 hPa Calm     Humidity % 0 mm SolarRadiationWatts/m^2 W/m2 Conditions
00:04 -13.2 °C -14 °C 34682.8 hPa Calm     90 % 0 mm 0.0 W/m2 RA
00:09 -13.2 °C -14.1 °C 34693 hPa Calm     90 % 0 mm 0.0 W/m2 CLR
00:14 -13.3 °C -14.1 °C 34693 hPa Calm     90 % 0 mm 0.0 W/m2 CLR
00:19 -13.3 °C -14.1 °C 34693 hPa Calm     91 % 0 mm 0.0 W/m2 CLR
00:24 -13.3 °C -14.2 °C 34693 hPa Calm     90 % 0 mm 0.0 W/m2 CLR
00:29 -13.4 °C -14.3 °C 34693 hPa Calm     90 % 0 mm 0.0 W/m2 CLR
00:34 -13.5 °C -14.3 °C 34693 hPa Calm     91 % 0 mm 0.0 W/m2 CLR
00:39 -13.6 °C -14.3 °C 34693 hPa Calm     91 % 0 mm 0.0 W/m2 CLR
00:44 -13.6 °C -14.3 °C 34703.1 hPa Calm     91 % 0 mm 0.0 W/m2 CLR
00:49 -13.7 °C -14.4 °C 34703.1 hPa Calm     91 % 0 mm 0.0 W/m2 CLR
00:54 -13.7 °C -14.5 °C 34703.1 hPa Calm     91 % 0 mm 0.0 W/m2 CLR
00:59 -13.8 °C -14.4 °C 34703.1 hPa Calm     92 % 0 mm 0.0 W/m2 CLR
01:04 -13.8 °C -14.5 °C 34703.1 hPa Calm     92 % 0 mm 0.0 W/m2 CLR
01:09 -13.9 °C -14.7 °C 34703.1 hPa Calm     91 % 0 mm 0.0 W/m2 CLR
01:14 -13.9 °C -14.6 °C 34703.1 hPa Calm     92 % 0 mm 0.0 W/m2 CLR
01:15 -13.9 °C -14.6 °C 34703.1 hPa Calm     92 % 0 mm 0.0 W/m2 CLR
01:20 -14 °C -14.7 °C 34703.1 hPa Calm     92 % 0 mm 0.0 W/m2 CLR
01:25 -14 °C -14.7 °C 34703.1 hPa Calm     92 % 0 mm 0.0 W/m2 CLR
01:30 -14 °C -14.7 °C 34703.1 hPa Calm     92 % 0 mm 0.0 W/m2 CLR
01:35 -14 °C -14.7 °C 34703.1 hPa Calm     92 % 0 mm 0.0 W/m2 CLR
01:40 -13.9 °C -14.6 °C 34703.1 hPa Calm     92 % 0 mm 0.0 W/m2 CLR
01:45 -14 °C -14.7 °C 34703.1 hPa Calm     92 % 0 mm 0.0 W/m2 CLR
01:50 -14.1 °C -14.8 °C 34716.7 hPa Calm     92 % 0 mm 0.0 W/m2 CLR
01:55 -14.2 °C -14.9 °C 34716.7 hPa Calm     92 % 0 mm 0.0 W/m2 CLR
02:00 -14.3 °C -14.9 °C 34716.7 hPa Calm     92 % 0 mm 0.0 W/m2 CLR
02:05 -14.3 °C -14.9 °C 34716.7 hPa Calm     92 % 0 mm 0.0 W/m2 CLR
02:10 -14.3 °C -14.9 °C 34716.7 hPa Calm     92 % 0 mm 0.0 W/m2 CLR
02:20 -14.3 °C -15 °C 34716.7 hPa Calm     92 % 0 mm 0.0 W/m2 CLR
02:25 -14.4 °C -15.1 °C 34716.7 hPa Calm     92 % 0 mm 0.0 W/m2 CLR
02:30 -14.4 °C -15.1 °C 34716.7 hPa Calm     92 % 0 mm 0.0 W/m2 CLR
02:35 -14.5 °C -15.2 °C 34726.8 hPa Calm     92 % 0 mm 0.0 W/m2 CLR
02:40 -14.5 °C -15.2 °C 34716.7 hPa Calm     92 % 0 mm 0.0 W/m2 CLR
02:45 -14.6 °C -15.2 °C 34716.7 hPa Calm     92 % 0 mm 0.0 W/m2 CLR
02:50 -14.6 °C -15.2 °C 34716.7 hPa Calm     92 % 0 mm 0.0 W/m2 CLR
02:55 -14.7 °C -15.3 °C 34716.7 hPa Calm     92 % 0 mm 0.0 W/m2 CLR
03:00 -14.8 °C -15.4 °C 34716.7 hPa Calm     92 % 0 mm 0.0 W/m2 CLR
03:05 -14.8 °C -15.4 °C 34726.8 hPa Calm     92 % 0 mm 0.0 W/m2 CLR
03:10 -14.8 °C -15.4 °C 34726.8 hPa Calm     93 % 0 mm 0.0 W/m2 CLR
03:15 -14.8 °C -15.3 °C 34726.8 hPa Calm     93 % 0 mm 0.0 W/m2 CLR
03:20 -14.8 °C -15.4 °C 34726.8 hPa Calm     93 % 0 mm 0.0 W/m2 CLR
03:25 -14.9 °C -15.5 °C 34726.8 hPa Calm     92 % 0 mm 0.0 W/m2 CLR
03:30 -14.9 °C -15.5 °C 34726.8 hPa Calm     93 % 0 mm 0.0 W/m2 CLR
03:35 -14.9 °C -15.6 °C 34726.8 hPa Calm     92 % 0 mm 0.0 W/m2 CLR
03:36 -14.9 °C -15.6 °C 34726.8 hPa Calm     92 % 0 mm 0.0 W/m2 CLR
03:41 -15 °C -15.6 °C 34726.8 hPa Calm     93 % 0 mm 0.0 W/m2 CLR
03:46 -14.9 °C -15.6 °C 34726.8 hPa Calm     93 % 0 mm 0.0 W/m2 CLR
03:51 -14.9 °C -15.6 °C 34726.8 hPa Calm     93 % 0 mm 0.0 W/m2 CLR
03:56 -15 °C -15.6 °C 34726.8 hPa Calm     93 % 0 mm 0.0 W/m2 CLR
04:01 -14.9 °C -15.6 °C 34716.7 hPa Calm     93 % 0 mm 0.0 W/m2 CLR
04:06 -15.1 °C -15.6 °C 34726.8 hPa Calm     93 % 0 mm 0.0 W/m2 CLR
04:11 -15.1 °C -15.7 °C 34726.8 hPa Calm     93 % 0 mm 0.0 W/m2 CLR
04:16 -15.2 °C -15.8 °C 34726.8 hPa Calm     93 % 0 mm 0.0 W/m2 CLR
04:21 -15.2 °C -15.8 °C 34726.8 hPa Calm     93 % 0 mm 0.0 W/m2 CLR
04:26 -15.2 °C -15.8 °C 34726.8 hPa Calm     93 % 0 mm 0.0 W/m2 CLR
04:31 -15.2 °C -15.8 °C 34726.8 hPa Calm     93 % 0 mm 0.0 W/m2 CLR
04:36 -15.3 °C -15.9 °C 34726.8 hPa Calm     93 % 0 mm 0.0 W/m2 CLR
04:41 -15.4 °C -15.9 °C 34726.8 hPa Calm     93 % 0 mm 0.0 W/m2 CLR
04:46 -15.4 °C -15.9 °C 34726.8 hPa Calm     93 % 0 mm 0.0 W/m2 CLR
04:51 -15.4 °C -15.9 °C 34726.8 hPa Calm     93 % 0 mm 0.0 W/m2 CLR
04:56 -15.4 °C -16 °C 34726.8 hPa Calm     93 % 0 mm 0.0 W/m2 CLR
05:01 -15.4 °C -16 °C 34726.8 hPa Calm     93 % 0 mm 0.0 W/m2 CLR
05:06 -15.5 °C -16.1 °C 34726.8 hPa Calm     93 % 0 mm 0.0 W/m2 CLR
05:11 -15.4 °C -16.1 °C 34726.8 hPa Calm     93 % 0 mm 0.0 W/m2 CLR
05:16 -15.4 °C -16 °C 34726.8 hPa Calm     93 % 0 mm 0.0 W/m2 CLR
05:21 -15.4 °C -16 °C 34726.8 hPa Calm     93 % 0 mm 0.0 W/m2 CLR
05:26 -15.4 °C -16.1 °C 34726.8 hPa Calm     93 % 0 mm 0.0 W/m2 CLR
05:31 -15.4 °C -16 °C 34726.8 hPa SW 9 km/h 9 km/h 93 % 0 mm 0.0 W/m2 CLR
05:36 -15.4 °C -16 °C 34740.4 hPa Calm     93 % 0 mm 0.0 W/m2 CLR
05:41 -15.5 °C -16.1 °C 34740.4 hPa Calm     93 % 0 mm 0.0 W/m2 CLR
05:46 -15.5 °C -16.1 °C 34740.4 hPa Calm     93 % 0 mm 0.0 W/m2 CLR
05:51 -15.6 °C -16.2 °C 34740.4 hPa Calm     93 % 0 mm 0.0 W/m2 CLR
05:56 -15.6 °C -16.2 °C 34740.4 hPa Calm     93 % 0 mm 0.0 W/m2 CLR
06:01 -15.7 °C -16.2 °C 34740.4 hPa Calm     93 % 0 mm 0.0 W/m2 CLR
06:06 -15.6 °C -16.2 °C 34740.4 hPa Calm     93 % 0 mm 0.0 W/m2 CLR
06:11 -15.6 °C -16.2 °C 34740.4 hPa Calm     93 % 0 mm 0.0 W/m2 CLR
06:16 -15.5 °C -16.1 °C 34740.4 hPa Calm     93 % 0 mm 0.0 W/m2 CLR
06:21 -15.6 °C -16.2 °C 34740.4 hPa Calm     93 % 0 mm 0.0 W/m2 CLR
06:26 -15.5 °C -16.1 °C 34740.4 hPa Calm     93 % 0 mm 0.0 W/m2 CLR
06:31 -15.5 °C -16.1 °C 34740.4 hPa Calm     93 % 0 mm 0.0 W/m2 CLR
06:36 -15.6 °C -16.2 °C 34750.5 hPa Calm     93 % 0 mm 0.0 W/m2 CLR
06:41 -15.7 °C -16.2 °C 34750.5 hPa Calm     93 % 0 mm 0.0 W/m2 CLR
06:46 -15.7 °C -16.3 °C 34750.5 hPa Calm     93 % 0 mm 0.0 W/m2 CLR
06:51 -15.8 °C -16.3 °C 34750.5 hPa Calm     93 % 0 mm 0.0 W/m2 CLR
06:56 -15.7 °C -16.2 °C 34750.5 hPa Calm     93 % 0 mm 0.0 W/m2 CLR
07:01 -15.5 °C -16 °C 34750.5 hPa Calm     94 % 0 mm 0.0 W/m2 CLR
07:06 -15.6 °C -16.2 °C 34750.5 hPa Calm     93 % 7.62 mm 0.0 W/m2 RA
07:11 -15.6 °C -16.2 °C 34750.5 hPa Calm     93 % 7.62 mm 0.0 W/m2 CLR
07:16 -15.7 °C -16.3 °C 34750.5 hPa Calm     93 % 7.62 mm 0.0 W/m2 CLR
07:21 -15.7 °C -16.3 °C 34750.5 hPa Calm     93 % 7.62 mm 0.0 W/m2 CLR
07:26 -15.8 °C -16.3 °C 34750.5 hPa Calm     93 % 7.62 mm 0.0 W/m2 CLR
07:31 -15.8 °C -16.3 °C 34750.5 hPa Calm     93 % 7.62 mm 0.0 W/m2 CLR
07:36 -15.7 °C -16.2 °C 34760.7 hPa Calm     94 % 7.62 mm 0.0 W/m2 CLR
07:41 -15.7 °C -16.3 °C 34760.7 hPa Calm     93 % 7.62 mm 0.0 W/m2 OVC
07:46 -15.8 °C -16.3 °C 34760.7 hPa Calm     93 % 7.62 mm 0.0 W/m2 OVC
07:51 -15.8 °C -16.3 °C 34760.7 hPa SSW 5.1 km/h 5.1 km/h 93 % 7.62 mm 5.0 W/m2 OVC
07:56 -15.7 °C -16.2 °C 34760.7 hPa Calm     94 % 7.62 mm 9.0 W/m2 BKN
08:01 -15.7 °C -16.3 °C 34774.2 hPa Calm     93 % 7.62 mm 12.0 W/m2 BKN
08:06 -15.7 °C -16.3 °C 34774.2 hPa Calm     93 % 0 mm 14.0 W/m2 BKN
08:11 -15.7 °C -16.2 °C 34774.2 hPa Calm     93 % 0 mm 18.0 W/m2 BKN
08:16 -15.7 °C -16.3 °C 34784.4 hPa Calm     93 % 0 mm 26.0 W/m2 BKN
08:21 -15.7 °C -16.2 °C 34784.4 hPa Calm     93 % 0 mm 35.0 W/m2 BKN
08:26 -15.6 °C -16.1 °C 34784.4 hPa Calm     94 % 0 mm 49.0 W/m2 SCT
08:31 -15.5 °C -16 °C 34784.4 hPa Calm     94 % 0 mm 60.0 W/m2 SCT
08:36 -15.4 °C -16.1 °C 34784.4 hPa Calm     93 % 0 mm 54.0 W/m2 SCT
08:41 -15.3 °C -15.8 °C 34784.4 hPa Calm     94 % 0 mm 33.0 W/m2 BKN
08:46 -15.3 °C -15.9 °C 34784.4 hPa Calm     93 % 0 mm 35.0 W/m2 BKN
08:51 -15.2 °C -15.7 °C 34784.4 hPa Calm     94 % 0 mm 72.0 W/m2 BKN
08:56 -15.1 °C -15.5 °C 34784.4 hPa Calm     94 % 0 mm 114.0 W/m2 SCT
09:01 -14.9 °C -15.4 °C 34797.9 hPa Calm     94 % 0 mm 149.0 W/m2 CLR
09:06 -14.7 °C -15.2 °C 34784.4 hPa Calm     94 % 0 mm 165.0 W/m2 CLR
09:11 -14.5 °C -15 °C 34784.4 hPa Calm     94 % 0 mm 183.0 W/m2 CLR
09:16 -14.4 °C -14.9 °C 34784.4 hPa Calm     94 % 0 mm 200.0 W/m2 CLR
09:21 -14.3 °C -14.8 °C 34797.9 hPa Calm     94 % 0 mm 221.0 W/m2 CLR
09:26 -14 °C -14.5 °C 34797.9 hPa Calm     94 % 0 mm 239.0 W/m2 CLR
09:31 -13.8 °C -14.3 °C 34797.9 hPa Calm     94 % 0 mm 255.0 W/m2 CLR
09:36 -13.6 °C -14.2 °C 34797.9 hPa Calm     93 % 0 mm 271.0 W/m2 CLR
09:41 -13.4 °C -13.9 °C 34797.9 hPa Calm     93 % 0 mm 285.0 W/m2 CLR
09:46 -13.1 °C -13.7 °C 34797.9 hPa Calm     93 % 0 mm 302.0 W/m2 CLR
09:51 -12.9 °C -13.6 °C 34797.9 hPa Calm     92 % 0 mm 318.0 W/m2 CLR
09:56 -12.7 °C -13.4 °C 34797.9 hPa Calm     92 % 0 mm 334.0 W/m2 CLR
10:01 -12.4 °C -13.2 °C 34784.4 hPa Calm     91 % 0 mm 350.0 W/m2 CLR
10:06 -12.2 °C -12.9 °C 34784.4 hPa Calm     91 % 0 mm 367.0 W/m2 CLR
10:11 -11.8 °C -12.7 °C 34784.4 hPa Calm     90 % 0 mm 385.0 W/m2 CLR
10:16 -11.5 °C -12.4 °C 34797.9 hPa Calm     89 % 0 mm 403.0 W/m2 CLR
10:21 -11.3 °C -12.6 °C 34797.9 hPa Calm     86 % 0 mm 411.0 W/m2 CLR
10:26 -11.1 °C -12.6 °C 34797.9 hPa Calm     83 % 0 mm 425.0 W/m2 CLR
10:31 -10.9 °C -12.4 °C 34797.9 hPa Calm     83 % 0 mm 446.0 W/m2 CLR
10:36 -10.7 °C -12.4 °C 34797.9 hPa Calm     81 % 0 mm 462.0 W/m2 CLR
10:41 -10.5 °C -12.4 °C 34797.9 hPa Calm     79 % 0 mm 476.0 W/m2 CLR
10:46 -10.3 °C -12.3 °C 34797.9 hPa Calm     79 % 0 mm 490.0 W/m2 CLR
10:51 -10.1 °C -12.4 °C 34797.9 hPa Calm     76 % 0 mm 506.0 W/m2 CLR
10:57 -9.9 °C -12.6 °C 34797.9 hPa NNW 20.9 km/h 20.9 km/h 73 % 0 mm 519.0 W/m2 CLR
11:02 -9.9 °C -12.7 °C 34797.9 hPa WSW 9 km/h 9 km/h 72 % 0 mm 531.0 W/m2 CLR
11:07 -9.8 °C -12.6 °C 34797.9 hPa NNW 20.9 km/h 20.9 km/h 72 % 0 mm 541.0 W/m2 CLR
11:12 -9.8 °C -12.7 °C 34797.9 hPa NNW 15.6 km/h 15.6 km/h 71 % 0 mm 555.0 W/m2 CLR
11:17 -9.6 °C -12.6 °C 34797.9 hPa WNW 3.1 km/h   71 % 0 mm 570.0 W/m2 CLR
11:22 -9.5 °C -12.6 °C 34797.9 hPa NNW 20.8 km/h 20.8 km/h 70 % 0 mm 580.0 W/m2 CLR
11:27 -9.5 °C -12.7 °C 34797.9 hPa NNW 17.9 km/h 17.9 km/h 69 % 0 mm 592.0 W/m2 CLR
11:32 -9.4 °C -12.4 °C 34797.9 hPa NW 29.8 km/h 29.8 km/h 70 % 0 mm 606.0 W/m2 CLR
11:37 -9.4 °C -12.6 °C 34808.1 hPa NW 26.9 km/h 26.9 km/h 69 % 0 mm 615.0 W/m2 CLR
11:42 -9.5 °C -12.7 °C 34808.1 hPa NW 17.9 km/h 17.9 km/h 69 % 0 mm 628.0 W/m2 CLR
11:47 -9.4 °C -12.7 °C 34808.1 hPa West 17.9 km/h 17.9 km/h 68 % 0 mm 638.0 W/m2 CLR
11:52 -9.3 °C -12.6 °C 34808.1 hPa WNW 20.9 km/h 20.9 km/h 68 % 0 mm 652.0 W/m2 CLR
11:57 -9.3 °C -12.7 °C 34808.1 hPa North 17.9 km/h 17.9 km/h 67 % 0 mm 659.0 W/m2 CLR
12:02 -9.2 °C -12.7 °C 34808.1 hPa NNW 29.8 km/h 29.8 km/h 66 % 0 mm 666.0 W/m2 CLR
12:07 -9.3 °C -12.7 °C 34808.1 hPa NNW 29.8 km/h 29.8 km/h 67 % 0 mm 700.0 W/m2 CLR
12:12 -9.3 °C -12.6 °C 34808.1 hPa NW 15 km/h 15 km/h 68 % 0 mm 687.0 W/m2 CLR
12:17 -9.3 °C -12.4 °C 34808.1 hPa NW 15 km/h 15 km/h 69 % 0 mm 700.0 W/m2 CLR
12:22 -9.1 °C -12.1 °C 34808.1 hPa NW 20.9 km/h 20.9 km/h 70 % 0 mm 707.0 W/m2 CLR
12:27 -9 °C -12.4 °C 34808.1 hPa WNW 26.9 km/h 26.9 km/h 67 % 0 mm 715.0 W/m2 CLR
12:32 -9 °C -12.3 °C 34808.1 hPa NW 26.9 km/h 26.9 km/h 68 % 0 mm 722.0 W/m2 CLR
12:37 -9 °C -12.3 °C 34808.1 hPa NW 38.8 km/h 38.8 km/h 68 % 0 mm 729.0 W/m2 CLR
12:42 -9 °C -12.6 °C 34808.1 hPa WNW 29.8 km/h 29.8 km/h 66 % 0 mm 742.0 W/m2 CLR
12:47 -9 °C -12.7 °C 34808.1 hPa NW 33.6 km/h 33.6 km/h 65 % 0 mm 747.0 W/m2 CLR
12:52 -9 °C -12.4 °C 34808.1 hPa NW 38.8 km/h 38.8 km/h 67 % 0 mm 752.0 W/m2 CLR
12:57 -8.9 °C -12.4 °C 34808.1 hPa NW 38.8 km/h 38.8 km/h 66 % 0 mm 761.0 W/m2 CLR
13:02 -8.9 °C -12.4 °C 34808.1 hPa WNW 32.8 km/h 32.8 km/h 66 % 0 mm 770.0 W/m2 CLR
13:07 -8.8 °C -12.5 °C 34808.1 hPa NW 29.8 km/h 29.8 km/h 65 % 0 mm 779.0 W/m2 CLR
13:12 -8.8 °C -12.6 °C 34808.1 hPa NNW 26.9 km/h 26.9 km/h 64 % 0 mm 772.0 W/m2 CLR
13:17 -8.7 °C -12.7 °C 34797.9 hPa NNW 32.8 km/h 32.8 km/h 62 % 0 mm 751.0 W/m2 CLR
13:22 -8.7 °C -12.6 °C 34797.9 hPa NW 29.8 km/h 29.8 km/h 63 % 0 mm 793.0 W/m2 CLR
13:27 -8.6 °C -12.4 °C 34797.9 hPa NW 31.1 km/h 31.1 km/h 64 % 0 mm 791.0 W/m2 CLR
13:32 -8.6 °C -12.4 °C 34797.9 hPa NW 20.9 km/h 20.9 km/h 63 % 0 mm 795.0 W/m2 CLR
13:37 -8.5 °C -12.7 °C 34797.9 hPa NNW 32.8 km/h 32.8 km/h 61 % 0 mm 796.0 W/m2 CLR
13:42 -8.6 °C -12.7 °C 34797.9 hPa NNW 29.8 km/h 29.8 km/h 62 % 0 mm 800.0 W/m2 CLR
13:47 -8.6 °C -12.7 °C 34797.9 hPa NW 35.7 km/h 35.7 km/h 61 % 0 mm 800.0 W/m2 CLR
13:52 -8.4 °C -12.2 °C 34797.9 hPa North 29.8 km/h 29.8 km/h 64 % 0 mm 800.0 W/m2 CLR
13:57 -8.4 °C -12.4 °C 34797.9 hPa NW 32.8 km/h 32.8 km/h 62 % 0 mm 807.0 W/m2 CLR
14:02 -8.2 °C -12.3 °C 34784.4 hPa NNW 32.8 km/h 32.8 km/h 62 % 0 mm 803.0 W/m2 CLR
14:07 -8.2 °C -12.6 °C 34784.4 hPa North 29.8 km/h 29.8 km/h 60 % 0 mm 770.0 W/m2 CLR
14:12 -8.2 °C -12.4 °C 34784.4 hPa NW 29.8 km/h 29.8 km/h 61 % 0 mm 807.0 W/m2 CLR
14:17 -8.2 °C -12.6 °C 34784.4 hPa WNW 32.8 km/h 32.8 km/h 60 % 0 mm 805.0 W/m2 CLR
14:22 -8.2 °C -12.2 °C 34784.4 hPa NNW 10.3 km/h 10.3 km/h 62 % 0 mm 791.0 W/m2 CLR
14:27 -8 °C -12.8 °C 34784.4 hPa NW 17.9 km/h 17.9 km/h 57 % 0 mm 803.0 W/m2 CLR
14:32 -7.9 °C -12.3 °C 34784.4 hPa NW 23.8 km/h 23.8 km/h 60 % 0 mm 798.0 W/m2 CLR
14:37 -7.9 °C -13.1 °C 34784.4 hPa NNW 17.9 km/h 17.9 km/h 54 % 0 mm 803.0 W/m2 CLR
14:42 -7.8 °C -13.1 °C 34774.2 hPa North 11.9 km/h 11.9 km/h 54 % 0 mm 809.0 W/m2 CLR
14:47 -7.8 °C -13.8 °C 34774.2 hPa NNW 26.9 km/h 26.9 km/h 49 % 0 mm 682.0 W/m2 CLR
14:52 -7.8 °C -13.6 °C 34774.2 hPa NNW 17.9 km/h 17.9 km/h 51 % 0 mm 747.0 W/m2 CLR
14:57 -7.7 °C -13.4 °C 34774.2 hPa Calm     51 % 0 mm 786.0 W/m2 CLR
15:02 -7.6 °C -13.5 °C 34774.2 hPa Calm     50 % 0 mm 784.0 W/m2 CLR
15:07 -7.6 °C -13.7 °C 34774.2 hPa WNW 23.3 km/h 23.3 km/h 49 % 0 mm 777.0 W/m2 CLR
15:12 -7.6 °C -14 °C 34774.2 hPa WNW 3.1 km/h   47 % 0 mm 765.0 W/m2 CLR
15:17 -7.4 °C -13.6 °C 34760.7 hPa North 15.6 km/h 15.6 km/h 49 % 0 mm 759.0 W/m2 CLR
15:22 -7.4 °C -14 °C 34760.7 hPa North 29.8 km/h 29.8 km/h 46 % 0 mm 761.0 W/m2 CLR
15:27 -7.4 °C -13.6 °C 34774.2 hPa NW 17.9 km/h 17.9 km/h 48 % 0 mm 752.0 W/m2 CLR
15:32 -7.4 °C -13.4 °C 34760.7 hPa North 12.9 km/h 12.9 km/h 49 % 0 mm 747.0 W/m2 CLR
15:37 -7.4 °C -13.8 °C 34760.7 hPa NE 9 km/h 9 km/h 47 % 0 mm 735.0 W/m2 CLR
15:42 -7.4 °C -13.4 °C 34760.7 hPa North 20.9 km/h 20.9 km/h 49 % 0 mm 735.0 W/m2 CLR
15:47 -7.3 °C -13.4 °C 34760.7 hPa NNW 28.5 km/h 28.5 km/h 49 % 0 mm 724.0 W/m2 CLR
15:52 -7.4 °C -13.6 °C 34760.7 hPa NW 9 km/h 9 km/h 48 % 0 mm 710.0 W/m2 CLR
15:57 -7.4 °C -13.5 °C 34760.7 hPa North 9 km/h 9 km/h 49 % 0 mm 705.0 W/m2 CLR
16:02 -7.4 °C -13.5 °C 34760.7 hPa North 9 km/h 9 km/h 49 % 0 mm 696.0 W/m2 CLR
16:07 -7.4 °C -13.5 °C 34760.7 hPa NNW 23.8 km/h 23.8 km/h 49 % 0 mm 689.0 W/m2 CLR
16:12 -7.3 °C -13.6 °C 34760.7 hPa North 23.8 km/h 23.8 km/h 48 % 0 mm 701.0 W/m2 CLR
16:17 -7.3 °C -13.2 °C 34750.5 hPa NNE 23.3 km/h 23.3 km/h 50 % 0 mm 670.0 W/m2 CLR
16:22 -7.3 °C -13.5 °C 34750.5 hPa NNE 23.8 km/h 23.8 km/h 48 % 0 mm 652.0 W/m2 CLR
16:27 -7.2 °C -13.4 °C 34750.5 hPa North 29.8 km/h 29.8 km/h 48 % 0 mm 657.0 W/m2 CLR
16:32 -7.1 °C -13.4 °C 34750.5 hPa NNE 5.1 km/h 5.1 km/h 48 % 0 mm 642.0 W/m2 CLR
16:37 -7 °C -13.1 °C 34750.5 hPa West 9 km/h 9 km/h 49 % 0 mm 626.0 W/m2 CLR
16:42 -7.1 °C -13.6 °C 34750.5 hPa NNW 29.8 km/h 29.8 km/h 47 % 0 mm 613.0 W/m2 CLR
16:47 -7.2 °C -13.8 °C 34750.5 hPa NE 9 km/h 9 km/h 46 % 0 mm 598.0 W/m2 CLR
16:52 -7.1 °C -13.5 °C 34750.5 hPa North 5.1 km/h 6.9 km/h 47 % 0 mm 591.0 W/m2 CLR
16:57 -7 °C -13.7 °C 34750.5 hPa NNE 31.1 km/h 31.1 km/h 46 % 0 mm 575.0 W/m2 CLR
17:02 -7.1 °C -13.6 °C 34750.5 hPa NNE 26.9 km/h 26.9 km/h 47 % 0 mm 566.0 W/m2 CLR
17:07 -7.1 °C -13.7 °C 34740.4 hPa NNE 6 km/h   46 % 0 mm 564.0 W/m2 CLR
17:12 -7 °C -13.1 °C 34740.4 hPa North 9 km/h 9.7 km/h 49 % 0 mm 555.0 W/m2 CLR
17:17 -7 °C -13.4 °C 34740.4 hPa NNW 25.9 km/h 25.9 km/h 47 % 0 mm 540.0 W/m2 CLR
17:22 -7.1 °C -13.3 °C 34740.4 hPa WNW 20.9 km/h 20.9 km/h 48 % 0 mm 506.0 W/m2 CLR
17:27 -7 °C -13.4 °C 34740.4 hPa NNE 6 km/h   47 % 0 mm 490.0 W/m2 CLR
17:32 -7 °C -13.4 °C 34740.4 hPa NNW 15 km/h 15 km/h 47 % 0 mm 476.0 W/m2 CLR
17:37 -7.1 °C -13.5 °C 34740.4 hPa NNW 23.8 km/h 23.8 km/h 47 % 0 mm 457.0 W/m2 CLR
17:42 -7.1 °C -13.7 °C 34740.4 hPa Calm     46 % 0 mm 443.0 W/m2 CLR
17:47 -7 °C -14 °C 34740.4 hPa North 29.8 km/h 29.8 km/h 44 % 0 mm 429.0 W/m2 CLR
17:52 -7 °C -13.8 °C 34740.4 hPa North 26.9 km/h 26.9 km/h 45 % 0 mm 415.0 W/m2 CLR
17:57 -7 °C -13.8 °C 34740.4 hPa NNW 26.9 km/h 26.9 km/h 45 % 0 mm 401.0 W/m2 CLR
18:03 -7 °C -14 °C 34740.4 hPa NW 15 km/h 15 km/h 44 % 0 mm 387.0 W/m2 CLR
18:08 -6.9 °C -13.8 °C 34740.4 hPa NNE 23.3 km/h 23.3 km/h 45 % 0 mm 367.0 W/m2 CLR
18:13 -7 °C -14.1 °C 34740.4 hPa North 29.8 km/h 29.8 km/h 43 % 0 mm 352.0 W/m2 CLR
18:18 -7.1 °C -14 °C 34740.4 hPa North 6 km/h   44 % 0 mm 336.0 W/m2 CLR
18:23 -7.1 °C -14.2 °C 34740.4 hPa NNE 15 km/h 15 km/h 43 % 0 mm 322.0 W/m2 FEW
18:28 -7.1 °C -14.1 °C 34740.4 hPa NNW 17.9 km/h 17.9 km/h 44 % 0 mm 306.0 W/m2 BKN
18:33 -7.2 °C -14.1 °C 34740.4 hPa North 6 km/h 6 km/h 44 % 0 mm 287.0 W/m2 OVC
18:38 -7.1 °C -14.1 °C 34740.4 hPa Calm     44 % 0 mm 271.0 W/m2 OVC
18:43 -7 °C -14 °C 34740.4 hPa NNE 9 km/h 9 km/h 44 % 0 mm 255.0 W/m2 OVC
18:48 -7 °C -14 °C 34740.4 hPa North 11.9 km/h 11.9 km/h 44 % 0 mm 237.0 W/m2 OVC
18:53 -7.1 °C -14 °C 34740.4 hPa North 9 km/h 9 km/h 44 % 0 mm 218.0 W/m2 OVC
18:58 -7.1 °C -13.8 °C 34740.4 hPa NNW 11.9 km/h 11.9 km/h 45 % 0 mm 199.0 W/m2 OVC
19:03 -7.1 °C -13.8 °C 34740.4 hPa Calm     45 % 0 mm 181.0 W/m2 OVC
19:08 -7.1 °C -14.1 °C 34740.4 hPa Calm     44 % 0 mm 162.0 W/m2 OVC
19:13 -7.1 °C -14.1 °C 34740.4 hPa NNE 3.1 km/h 3.1 km/h 44 % 0 mm 141.0 W/m2 OVC
19:18 -7.2 °C -14.1 °C 34740.4 hPa North 12.9 km/h 12.9 km/h 44 % 0 mm 125.0 W/m2 OVC
19:23 -7.3 °C -14.1 °C 34740.4 hPa Calm     45 % 0 mm 107.0 W/m2 OVC
19:28 -7.3 °C -14.1 °C 34740.4 hPa NNW 9 km/h 9 km/h 45 % 0 mm 91.0 W/m2 OVC
19:33 -7.4 °C -14 °C 34740.4 hPa Calm     46 % 0 mm 62.0 W/m2 OVC
19:38 -7.4 °C -14 °C 34750.5 hPa Calm     46 % 0 mm 49.0 W/m2 OVC
19:43 -7.4 °C -14 °C 34750.5 hPa Calm     46 % 0 mm 44.0 W/m2 OVC
19:48 -7.6 °C -14.1 °C 34750.5 hPa NNW 9 km/h 9 km/h 46 % 0 mm 35.0 W/m2 OVC
19:53 -7.7 °C -13.9 °C 34750.5 hPa Calm     48 % 0 mm 26.0 W/m2 OVC
19:58 -7.8 °C -14 °C 34750.5 hPa Calm     48 % 0 mm 18.0 W/m2 OVC
20:03 -7.9 °C -14.2 °C 34750.5 hPa Calm     48 % 0 mm 14.0 W/m2 OVC
20:08 -8.1 °C -14.3 °C 34750.5 hPa Calm     48 % 0 mm 12.0 W/m2 OVC
20:13 -8.2 °C -14.2 °C 34750.5 hPa Calm     49 % 0 mm 9.0 W/m2 OVC
20:14 -8.2 °C -14.3 °C 34750.5 hPa Calm     49 % 0 mm 7.0 W/m2 OVC
20:19 -8.4 °C -14.3 °C 34750.5 hPa Calm     49 % 0 mm 5.0 W/m2 OVC
20:24 -8.5 °C -14.2 °C 34750.5 hPa Calm     51 % 0 mm 0.0 W/m2 OVC
20:29 -8.7 °C -14.2 °C 34750.5 hPa Calm     52 % 0 mm 0.0 W/m2 OVC
20:34 -8.8 °C -14.1 °C 34760.7 hPa Calm     53 % 0 mm 0.0 W/m2 CLR
20:39 -8.9 °C -13.9 °C 34760.7 hPa Calm     55 % 0 mm 0.0 W/m2 CLR
20:44 -9.1 °C -14 °C 34760.7 hPa Calm     56 % 0 mm 0.0 W/m2 CLR
20:49 -9.3 °C -14 °C 34760.7 hPa Calm     57 % 0 mm 0.0 W/m2 CLR
20:54 -9.4 °C -13.7 °C 34760.7 hPa Calm     60 % 0 mm 0.0 W/m2 CLR
20:59 -9.6 °C -13.8 °C 34760.7 hPa Calm     61 % 0 mm 0.0 W/m2 CLR
21:01 -9.7 °C -13.8 °C 34760.7 hPa Calm     61 % 0 mm 0.0 W/m2 CLR
21:06 -9.8 °C -13.7 °C 34774.2 hPa Calm     63 % 0 mm 0.0 W/m2 CLR
21:10 -10.1 °C -13.7 °C 34774.2 hPa Calm     65 % 0 mm 0.0 W/m2 CLR
21:16 -10.3 °C -13.7 °C 34774.2 hPa Calm     66 % 0 mm 0.0 W/m2 CLR
21:21 -10.4 °C -13.8 °C 34774.2 hPa Calm     67 % 0 mm 0.0 W/m2 CLR
21:26 -10.6 °C -13.7 °C 34774.2 hPa Calm     69 % 0 mm 0.0 W/m2 CLR
21:31 -10.7 °C -13.7 °C 34774.2 hPa Calm     70 % 0 mm 0.0 W/m2 CLR
21:36 -10.9 °C -13.7 °C 34784.4 hPa Calm     71 % 0 mm 0.0 W/m2 CLR
21:41 -11 °C -13.7 °C 34784.4 hPa Calm     72 % 0 mm 0.0 W/m2 CLR
21:46 -11.2 °C -13.7 °C 34784.4 hPa Calm     73 % 0 mm 0.0 W/m2 CLR
21:51 -11.3 °C -13.8 °C 34784.4 hPa Calm     74 % 0 mm 0.0 W/m2 CLR
21:56 -11.4 °C -13.8 °C 34784.4 hPa Calm     75 % 0 mm 0.0 W/m2 CLR
22:01 -11.5 °C -13.9 °C 34797.9 hPa Calm     75 % 0 mm 0.0 W/m2 CLR
22:06 -11.6 °C -13.9 °C 34797.9 hPa Calm     76 % 0 mm 0.0 W/m2 CLR
22:11 -11.8 °C -13.9 °C 34797.9 hPa Calm     77 % 0 mm 0.0 W/m2 CLR
22:16 -11.8 °C -14 °C 34797.9 hPa Calm     77 % 0 mm 0.0 W/m2 CLR
22:21 -11.9 °C -13.9 °C 34797.9 hPa Calm     78 % 0 mm 0.0 W/m2 CLR
22:26 -12 °C -14.1 °C 34797.9 hPa Calm     78 % 0 mm 0.0 W/m2 CLR
22:31 -12.1 °C -14.1 °C 34797.9 hPa Calm     79 % 0 mm 0.0 W/m2 CLR
22:36 -12.2 °C -14.1 °C 34808.1 hPa Calm     79 % 0 mm 0.0 W/m2 CLR
22:41 -12.2 °C -14.1 °C 34808.1 hPa Calm     80 % 0 mm 0.0 W/m2 CLR
22:46 -12.3 °C -14.1 °C 34808.1 hPa Calm     80 % 0 mm 0.0 W/m2 CLR
22:51 -12.3 °C -14.2 °C 34808.1 hPa Calm     80 % 0 mm 0.0 W/m2 CLR
22:56 -12.4 °C -14.2 °C 34808.1 hPa Calm     80 % 0 mm 0.0 W/m2 CLR
23:01 -12.5 °C -14.2 °C 34808.1 hPa Calm     81 % 0 mm 0.0 W/m2 CLR
23:06 -12.6 °C -14.3 °C 34808.1 hPa Calm     81 % 0 mm 0.0 W/m2 CLR
23:11 -12.6 °C -14.3 °C 34808.1 hPa Calm     81 % 0 mm 0.0 W/m2 CLR
23:16 -12.7 °C -14.4 °C 34808.1 hPa Calm     81 % 0 mm 0.0 W/m2 CLR
23:21 -12.7 °C -14.3 °C 34808.1 hPa Calm     82 % 0 mm 0.0 W/m2 CLR
23:26 -12.7 °C -14.3 °C 34808.1 hPa Calm     82 % 0 mm 0.0 W/m2 CLR
23:31 -12.7 °C -14.3 °C 34818.2 hPa Calm     82 % 0 mm 0.0 W/m2 CLR
23:36 -12.8 °C -14.4 °C 34818.2 hPa Calm     82 % 0 mm 0.0 W/m2 CLR
23:41 -12.8 °C -14.3 °C 34818.2 hPa Calm     83 % 0 mm 0.0 W/m2 CLR
23:46 -12.9 °C -14.4 °C 34818.2 hPa Calm     83 % 0 mm 0.0 W/m2 CLR
23:51 -12.9 °C -14.4 °C 34818.2 hPa Calm     83 % 0 mm 0.0 W/m2 CLR
23:56 -13.1 °C -14.6 °C 34818.2 hPa Calm     83 % 0 mm 0.0 W/m2 CLR
Lo Temps de Massalio
Compliments of Weather Underground - 1.25 mb